If you wish to contribute or participate in the discussions about articles you are invited to join SKYbrary as a registered user

 Actions

Treviso-Sant'Angelo Airport

From SKYbrary Wiki

LIPH
Airport
ICAO: LIPH – IATA: TSF
Summary
Name Treviso-Sant'Angelo Airport
Region Europe
Territory Italy IT.gif
Location Treviso, Veneto
Serving Treviso
Elevation 17.983 m
59 ft
59 ft17.983 m
Type large airport
Coordinates 45° 38' 54.24" N, 12° 11' 39.92" E
Runways
Designator Length Width Surface ROPS
7/25 2420 m7,939.633 ft
44 m144.357 ft
ASP yes/yes


METAR
Observation LIPH 041550Z 16004KT 130V200 8000 -RA BKN025 18/17 Q1001
Station Treviso / S. Angelo
Date/Time 04 June 2020 15:50:00
Wind direction 160°
Wind speed 04 kts
Lowest cloud amount broken clouds
Temperature 18°C
Dew point 17°C
Humidity 93%
QNH 1001 hPa
Weather condition n/a

Maps

Terrain

Loading map...

Airport Layout

Loading map...


Accidents & Serious Incidents at or in vicinity of LIPH

None on SKYbrary